Location: Milton Keynes
(52.0316°N, 0.7531°W)
Time: 15:24:46
(UTC+01:00)

Envisat - Pass Details

Date: 24 January 2019
Orbit: 764 x 766 km, 98.2° (Epoch: 19 April)

Event Time Altitude Azimuth Distance (km) Brightness Sun altitude
Rises 17:15:59 0° 126° (SE) 3,225 5.9 -6.3°
Reaches altitude 10° 17:18:36 10° 113° (ESE) 2,303 5.1 -6.7°
Maximum altitude 17:22:42 26° 59° (ENE) 1,497 4.0 -7.3°
Drops below altitude 10° 17:26:50 10° 5° (N) 2,317 5.2 -7.9°
Sets 17:29:28 0° 353° (N) 3,248 6.1 -8.3°
